Regional Weather Roundup
Issued by NWS

Home | Current Version | Previous Version | Graphics & Text | Print | Product List | Glossary On
Versions: 1 2 3 4 5 6 7 8 9 10 11 12 13 14 15 16 17 18 19 20 21 22 23 24 25 26 27 28 29 30 31 32 33 34 35 36 37 38 39 40 41 42 43 44 45 46 47 48 49 50
000
ASUS43 KLMK 231110
RWRKY
KENTUCKY REGIONAL WEATHER ROUNDUP
NATIONAL WEATHER SERVICE LOUISVILLE KY
700 AM EDT FRI JUN 23 2017

NOTE "FAIR" INDICATES FEW OR NO CLOUDS BELOW 12,000 FEET
WITH NO SIGNIFICANT WEATHER AND/OR OBSTRUCTIONS TO VISIBILITY.

KYZ001>023-026-027-061>063-070>075-231200-
WESTERN AND SOUTH CENTRAL KENTUCKY

CITY           SKY/WX    TMP DP  RH WIND       PRES   REMARKS
PADUCAH        CLOUDY    77  72  84 S8        29.72S
HENDERSON      LGT RAIN  75  73  93 S7        29.75S
OWENSBORO      LGT RAIN  75  73  93 S7        29.78R
HOPKINSVILLE   PTCLDY    75  72  89 S9        29.80R
BOWLING GREEN  CLEAR     76  73  91 S10       29.82R
GLASGOW        PTCLDY    75  73  91 S7G17     29.83F
$$

KYZ024-025-028>034-038-045-046-053-231200-
NORTH CENTRAL KENTUCKY

CITY           SKY/WX    TMP DP  RH WIND       PRES   REMARKS
LOUISVILLE/SDF CLOUDY    77  73  87 S8        29.78F
LOUISVILLE/LOU CLOUDY    76  74  93 S8        29.79F
FORT KNOX      CLOUDY    75  73  92 S10G18    29.79S
$$

KYZ035>037-039>044-047>052-055>060-089>105-231200-
NORTHEAST KENTUCKY

CITY           SKY/WX    TMP DP  RH WIND       PRES   REMARKS
LEXINGTON      CLOUDY    76  70  82 SW14      29.84S
COVINGTON      LGT RAIN  74  72  93 S9        29.77F FOG
FRANKFORT      CLOUDY    75  70  84 S12       29.81S
$$

KYZ054-064>069-076>088-106>120-231200-
SOUTHEAST KENTUCKY

CITY           SKY/WX    TMP DP  RH WIND       PRES   REMARKS
JACKSON        CLOUDY    72  69  90 VRB5      29.90R
LONDON         CLOUDY    73  69  87 S5        29.91R
SOMERSET       CLOUDY    72  72 100 S6        29.90S
MIDDLESBORO    RAIN      73  70  92 S9G22     29.94S
MONTICELLO     CLOUDY    75  71  87 VRB5      29.91R
$$





USA.gov is the U.S. government's official web portal to all federal, state and local government web resources and services.